Year,Month,Day,Hour,Minute,Value (Times are PST for temperature in C)
2015,06,17,00,00,14.00
2015,06,17,00,01,14.00
2015,06,17,00,02,14.00
2015,06,17,00,03,14.00
2015,06,17,00,04,14.00
2015,06,17,00,05,14.00
2015,06,17,00,06,14.00
2015,06,17,00,07,14.00
2015,06,17,00,08,14.10
2015,06,17,00,09,14.10
2015,06,17,00,10,14.10
2015,06,17,00,11,14.00
2015,06,17,00,12,14.10
2015,06,17,00,13,14.10
2015,06,17,00,14,14.10
2015,06,17,00,15,14.10
2015,06,17,00,16,14.10
2015,06,17,00,17,14.10
2015,06,17,00,18,14.10
2015,06,17,00,19,14.20
2015,06,17,00,20,14.20
2015,06,17,00,21,14.20
2015,06,17,00,22,14.20
2015,06,17,00,23,14.20
2015,06,17,00,24,14.20
2015,06,17,00,25,14.20
2015,06,17,00,26,14.20
2015,06,17,00,27,14.20
2015,06,17,00,28,14.20
2015,06,17,00,29,14.20
2015,06,17,00,30,14.20
2015,06,17,00,31,14.20
2015,06,17,00,32,14.20
2015,06,17,00,33,14.20
2015,06,17,00,34,14.20
2015,06,17,00,35,14.20
2015,06,17,00,36,14.20
2015,06,17,00,37,14.20
2015,06,17,00,38,14.20
2015,06,17,00,39,14.20
2015,06,17,00,40,14.20
2015,06,17,00,41,14.20
2015,06,17,00,42,14.20
2015,06,17,00,43,14.20
2015,06,17,00,44,14.20
2015,06,17,00,45,14.20
2015,06,17,00,46,14.20
2015,06,17,00,47,14.20
2015,06,17,00,48,14.10
2015,06,17,00,49,14.10
2015,06,17,00,50,14.10
2015,06,17,00,51,14.10
2015,06,17,00,52,14.10
2015,06,17,00,53,14.10
2015,06,17,00,54,14.10
2015,06,17,00,55,14.10
2015,06,17,00,56,14.10
2015,06,17,00,57,14.00
2015,06,17,00,58,14.00
2015,06,17,00,59,14.00
2015,06,17,01,00,14.00
2015,06,17,01,01,14.00
2015,06,17,01,02,14.00
2015,06,17,01,03,14.00
2015,06,17,01,04,14.00
2015,06,17,01,05,13.90
2015,06,17,01,06,13.90
2015,06,17,01,07,13.90
2015,06,17,01,08,13.90
2015,06,17,01,09,13.90
2015,06,17,01,10,13.90
2015,06,17,01,11,13.90
2015,06,17,01,12,13.90
2015,06,17,01,13,13.90
2015,06,17,01,14,13.90
2015,06,17,01,15,13.80
2015,06,17,01,16,13.80
2015,06,17,01,17,13.80
2015,06,17,01,18,13.80
2015,06,17,01,19,13.80
2015,06,17,01,20,13.80
2015,06,17,01,21,13.80
2015,06,17,01,22,13.80
2015,06,17,01,23,13.80
2015,06,17,01,24,13.80
2015,06,17,01,25,13.80
2015,06,17,01,26,13.80
2015,06,17,01,27,13.80
2015,06,17,01,28,13.80
2015,06,17,01,29,13.80
2015,06,17,01,30,13.80
2015,06,17,01,31,13.80
2015,06,17,01,32,13.80
2015,06,17,01,33,13.80
2015,06,17,01,34,13.80
2015,06,17,01,35,13.80
2015,06,17,01,36,13.80
2015,06,17,01,37,13.80
2015,06,17,01,38,13.80
2015,06,17,01,39,13.80
2015,06,17,01,40,13.80
2015,06,17,01,41,13.80
2015,06,17,01,42,13.80
2015,06,17,01,43,13.80
2015,06,17,01,44,13.80
2015,06,17,01,45,13.80
2015,06,17,01,46,13.70
2015,06,17,01,47,13.70
2015,06,17,01,48,13.70
2015,06,17,01,49,13.70
2015,06,17,01,50,13.70
2015,06,17,01,51,13.70
2015,06,17,01,52,13.70
2015,06,17,01,53,13.60
2015,06,17,01,54,13.60
2015,06,17,01,55,13.60
2015,06,17,01,56,13.60
2015,06,17,01,57,13.60
2015,06,17,01,58,13.60
2015,06,17,01,59,13.60
2015,06,17,02,00,13.60
2015,06,17,02,01,13.50
2015,06,17,02,02,13.50
2015,06,17,02,03,13.50
2015,06,17,02,04,13.50
2015,06,17,02,05,13.40
2015,06,17,02,06,13.40
2015,06,17,02,07,13.40
2015,06,17,02,08,13.40
2015,06,17,02,09,13.30
2015,06,17,02,10,13.30
2015,06,17,02,11,13.30
2015,06,17,02,12,13.30
2015,06,17,02,13,13.30
2015,06,17,02,14,13.20
2015,06,17,02,15,13.20
2015,06,17,02,16,13.20
2015,06,17,02,17,13.20
2015,06,17,02,18,13.20
2015,06,17,02,19,13.20
2015,06,17,02,20,13.20
2015,06,17,02,21,13.20
2015,06,17,02,22,13.20
2015,06,17,02,23,13.20
2015,06,17,02,24,13.10
2015,06,17,02,25,13.10
2015,06,17,02,26,13.10
2015,06,17,02,27,13.10
2015,06,17,02,28,13.10
2015,06,17,02,29,13.00
2015,06,17,02,30,13.00
2015,06,17,02,31,13.00
2015,06,17,02,32,13.00
2015,06,17,02,33,13.00
2015,06,17,02,34,13.00
2015,06,17,02,35,12.90
2015,06,17,02,36,12.90
2015,06,17,02,37,12.90
2015,06,17,02,38,12.90
2015,06,17,02,39,12.90
2015,06,17,02,40,12.80
2015,06,17,02,41,12.80
2015,06,17,02,42,12.80
2015,06,17,02,43,12.80
2015,06,17,02,44,12.80
2015,06,17,02,45,12.80
2015,06,17,02,46,12.80
2015,06,17,02,47,12.70
2015,06,17,02,48,12.70
2015,06,17,02,49,12.70
2015,06,17,02,50,12.70
2015,06,17,02,51,12.70
2015,06,17,02,52,12.70
2015,06,17,02,53,12.70
2015,06,17,02,54,12.70
2015,06,17,02,55,12.70
2015,06,17,02,56,12.70
2015,06,17,02,57,12.60
2015,06,17,02,58,12.60
2015,06,17,02,59,12.60
2015,06,17,03,00,12.60
2015,06,17,03,01,12.60
2015,06,17,03,02,12.60
2015,06,17,03,03,12.50
2015,06,17,03,04,12.50
2015,06,17,03,05,12.50
2015,06,17,03,06,12.40
2015,06,17,03,07,12.40
2015,06,17,03,08,12.40
2015,06,17,03,09,12.40
2015,06,17,03,10,12.40
2015,06,17,03,11,12.40
2015,06,17,03,12,12.30
2015,06,17,03,13,12.30
2015,06,17,03,14,12.30
2015,06,17,03,15,12.30
2015,06,17,03,16,12.30
2015,06,17,03,17,12.30
2015,06,17,03,18,12.20
2015,06,17,03,19,12.20
2015,06,17,03,20,12.20
2015,06,17,03,21,12.20
2015,06,17,03,22,12.20
2015,06,17,03,23,12.20
2015,06,17,03,24,12.10
2015,06,17,03,25,12.10
2015,06,17,03,26,12.10
2015,06,17,03,27,12.10
2015,06,17,03,28,12.10
2015,06,17,03,29,12.00
2015,06,17,03,30,12.00
2015,06,17,03,31,12.00
2015,06,17,03,32,12.00
2015,06,17,03,33,12.00
2015,06,17,03,34,12.00
2015,06,17,03,35,12.00
2015,06,17,03,36,11.90
2015,06,17,03,37,11.90
2015,06,17,03,38,11.90
2015,06,17,03,39,11.90
2015,06,17,03,40,11.90
2015,06,17,03,41,11.90
2015,06,17,03,42,11.90
2015,06,17,03,43,11.90
2015,06,17,03,44,11.90
2015,06,17,03,45,11.90
2015,06,17,03,46,11.80
2015,06,17,03,47,11.80
2015,06,17,03,48,11.80
2015,06,17,03,49,11.80
2015,06,17,03,50,11.80
2015,06,17,03,51,11.80
2015,06,17,03,52,11.80
2015,06,17,03,53,11.80
2015,06,17,03,54,11.80
2015,06,17,03,55,11.80
2015,06,17,03,56,11.80
2015,06,17,03,57,11.80
2015,06,17,03,58,11.80
2015,06,17,03,59,11.70
2015,06,17,04,00,11.70
2015,06,17,04,01,11.70
2015,06,17,04,02,11.70
2015,06,17,04,03,11.70
2015,06,17,04,04,11.70
2015,06,17,04,05,11.70
2015,06,17,04,06,11.70
2015,06,17,04,07,11.70
2015,06,17,04,08,11.70
2015,06,17,04,09,11.70
2015,06,17,04,10,11.70
2015,06,17,04,11,11.60
2015,06,17,04,12,11.60
2015,06,17,04,13,11.60
2015,06,17,04,14,11.60
2015,06,17,04,15,11.60
2015,06,17,04,16,11.60
2015,06,17,04,17,11.60
2015,06,17,04,18,11.60
2015,06,17,04,19,11.60
2015,06,17,04,20,11.60
2015,06,17,04,21,11.60
2015,06,17,04,22,11.60
2015,06,17,04,23,11.60
2015,06,17,04,24,11.60
2015,06,17,04,25,11.60
2015,06,17,04,26,11.60
2015,06,17,04,27,11.60
2015,06,17,04,28,11.50
2015,06,17,04,29,11.50
2015,06,17,04,30,11.50
2015,06,17,04,31,11.50
2015,06,17,04,32,11.50
2015,06,17,04,33,11.50
2015,06,17,04,34,11.50
2015,06,17,04,35,11.50
2015,06,17,04,36,11.50
2015,06,17,04,37,11.50
2015,06,17,04,38,11.50
2015,06,17,04,39,11.50
2015,06,17,04,40,11.50
2015,06,17,04,41,11.50
2015,06,17,04,42,11.50
2015,06,17,04,43,11.50
2015,06,17,04,44,11.50
2015,06,17,04,45,11.50
2015,06,17,04,46,11.50
2015,06,17,04,47,11.50
2015,06,17,04,48,11.50
2015,06,17,04,49,11.50
2015,06,17,04,50,11.50
2015,06,17,04,51,11.50
2015,06,17,04,52,11.50
2015,06,17,04,53,11.50
2015,06,17,04,54,11.50
2015,06,17,04,55,11.50
2015,06,17,04,56,11.50
2015,06,17,04,57,11.50
2015,06,17,04,58,11.50
2015,06,17,04,59,11.50
2015,06,17,05,00,11.50
2015,06,17,05,01,11.40
2015,06,17,05,02,11.40
2015,06,17,05,03,11.40
2015,06,17,05,04,11.40
2015,06,17,05,05,11.40
2015,06,17,05,06,11.40
2015,06,17,05,07,11.40
2015,06,17,05,08,11.40
2015,06,17,05,09,11.30
2015,06,17,05,10,11.30
2015,06,17,05,11,11.30
2015,06,17,05,12,11.30
2015,06,17,05,13,11.40
2015,06,17,05,14,11.30
2015,06,17,05,15,11.40
2015,06,17,05,16,11.30
2015,06,17,05,17,11.30
2015,06,17,05,18,11.30
2015,06,17,05,19,11.30
2015,06,17,05,20,11.30
2015,06,17,05,21,11.30
2015,06,17,05,22,11.30
2015,06,17,05,23,11.30
2015,06,17,05,24,11.30
2015,06,17,05,25,11.30
2015,06,17,05,26,11.30
2015,06,17,05,27,11.30
2015,06,17,05,28,11.30
2015,06,17,05,29,11.30
2015,06,17,05,30,11.30
2015,06,17,05,31,11.30
2015,06,17,05,32,11.30
2015,06,17,05,33,11.30
2015,06,17,05,34,11.30
2015,06,17,05,35,11.20
2015,06,17,05,36,11.20
2015,06,17,05,37,11.20
2015,06,17,05,38,11.20
2015,06,17,05,39,11.20
2015,06,17,05,40,11.20
2015,06,17,05,41,11.30
2015,06,17,05,42,11.30
2015,06,17,05,43,11.30
2015,06,17,05,44,11.30
2015,06,17,05,45,11.30
2015,06,17,05,46,11.30
2015,06,17,05,47,11.30
2015,06,17,05,48,11.30
2015,06,17,05,49,11.30
2015,06,17,05,50,11.30
2015,06,17,05,51,11.30
2015,06,17,05,52,11.30
2015,06,17,05,53,11.30
2015,06,17,05,54,11.30
2015,06,17,05,55,11.30
2015,06,17,05,56,11.30
2015,06,17,05,57,11.30
2015,06,17,05,58,11.40
2015,06,17,05,59,11.40
2015,06,17,06,00,11.40
2015,06,17,06,01,11.40
2015,06,17,06,02,11.40
2015,06,17,06,03,11.40
2015,06,17,06,04,11.40
2015,06,17,06,05,11.40
2015,06,17,06,06,11.40
2015,06,17,06,07,11.40
2015,06,17,06,08,11.40
2015,06,17,06,09,11.50
2015,06,17,06,10,11.50
2015,06,17,06,11,11.50
2015,06,17,06,12,11.50
2015,06,17,06,13,11.50
2015,06,17,06,14,11.50
2015,06,17,06,15,11.60
2015,06,17,06,16,11.60
2015,06,17,06,17,11.60
2015,06,17,06,18,11.70
2015,06,17,06,19,11.80
2015,06,17,06,20,11.80
2015,06,17,06,21,11.80
2015,06,17,06,22,11.90
2015,06,17,06,23,11.90
2015,06,17,06,24,12.00
2015,06,17,06,25,12.10
2015,06,17,06,26,12.10
2015,06,17,06,27,12.20
2015,06,17,06,28,12.30
2015,06,17,06,29,12.40
2015,06,17,06,30,12.40
2015,06,17,06,31,12.50
2015,06,17,06,32,12.50
2015,06,17,06,33,12.60
2015,06,17,06,34,12.60
2015,06,17,06,35,12.70
2015,06,17,06,36,12.80
2015,06,17,06,37,12.80
2015,06,17,06,38,12.90
2015,06,17,06,39,13.00
2015,06,17,06,40,13.00
2015,06,17,06,41,13.10
2015,06,17,06,42,13.20
2015,06,17,06,43,13.30
2015,06,17,06,44,13.30
2015,06,17,06,45,13.40
2015,06,17,06,46,13.50
2015,06,17,06,47,13.50
2015,06,17,06,48,13.60
2015,06,17,06,49,13.70
2015,06,17,06,50,13.80
2015,06,17,06,51,13.90
2015,06,17,06,52,13.90
2015,06,17,06,53,14.00
2015,06,17,06,54,14.10
2015,06,17,06,55,14.20
2015,06,17,06,56,14.20
2015,06,17,06,57,14.30
2015,06,17,06,58,14.30
2015,06,17,06,59,14.40
2015,06,17,07,00,14.40
2015,06,17,07,01,14.50
2015,06,17,07,02,14.70
2015,06,17,07,03,14.80
2015,06,17,07,04,14.90
2015,06,17,07,05,15.00
2015,06,17,07,06,15.00
2015,06,17,07,07,15.00
2015,06,17,07,08,15.10
2015,06,17,07,09,15.20
2015,06,17,07,10,15.20
2015,06,17,07,11,15.20
2015,06,17,07,12,15.20
2015,06,17,07,13,15.30
2015,06,17,07,14,15.30
2015,06,17,07,15,15.40
2015,06,17,07,16,15.50
2015,06,17,07,17,15.60
2015,06,17,07,18,15.50
2015,06,17,07,19,15.50
2015,06,17,07,20,15.50
2015,06,17,07,21,15.50
2015,06,17,07,22,15.60
2015,06,17,07,23,15.70
2015,06,17,07,24,15.70
2015,06,17,07,25,15.70
2015,06,17,07,26,15.80
2015,06,17,07,27,15.90
2015,06,17,07,28,16.00
2015,06,17,07,29,16.10
2015,06,17,07,30,16.20
2015,06,17,07,31,16.20
2015,06,17,07,32,16.20
2015,06,17,07,33,16.20
2015,06,17,07,34,16.30
2015,06,17,07,35,16.30
2015,06,17,07,36,16.40
2015,06,17,07,37,16.40
2015,06,17,07,38,16.50
2015,06,17,07,39,16.60
2015,06,17,07,40,16.60
2015,06,17,07,41,16.70
2015,06,17,07,42,16.80
2015,06,17,07,43,16.90
2015,06,17,07,44,17.00
2015,06,17,07,45,17.10
2015,06,17,07,46,17.20
2015,06,17,07,47,17.30
2015,06,17,07,48,17.40
2015,06,17,07,49,17.40
2015,06,17,07,50,17.50
2015,06,17,07,51,17.40
2015,06,17,07,52,17.30
2015,06,17,07,53,17.30
2015,06,17,07,54,17.30
2015,06,17,07,55,17.30
2015,06,17,07,56,17.20
2015,06,17,07,57,17.20
2015,06,17,07,58,17.20
2015,06,17,07,59,17.20
2015,06,17,08,00,17.20
2015,06,17,08,01,17.20
2015,06,17,08,02,17.20
2015,06,17,08,03,17.20
2015,06,17,08,04,17.20
2015,06,17,08,05,17.20
2015,06,17,08,06,17.20
2015,06,17,08,07,17.20
2015,06,17,08,08,17.20
2015,06,17,08,09,17.30
2015,06,17,08,10,17.30
2015,06,17,08,11,17.30
2015,06,17,08,12,17.20
2015,06,17,08,13,17.20
2015,06,17,08,14,17.20
2015,06,17,08,15,17.20
2015,06,17,08,16,17.20
2015,06,17,08,17,17.20
2015,06,17,08,18,17.20
2015,06,17,08,19,17.20
2015,06,17,08,20,17.20
2015,06,17,08,21,17.20
2015,06,17,08,22,17.20
2015,06,17,08,23,17.20
2015,06,17,08,24,17.20
2015,06,17,08,25,17.30
2015,06,17,08,26,17.40
2015,06,17,08,27,17.40
2015,06,17,08,28,17.40
2015,06,17,08,29,17.30
2015,06,17,08,30,17.30
2015,06,17,08,31,17.30
2015,06,17,08,32,17.30
2015,06,17,08,33,17.30
2015,06,17,08,34,17.30
2015,06,17,08,35,17.40
2015,06,17,08,36,17.50
2015,06,17,08,37,17.60
2015,06,17,08,38,17.70
2015,06,17,08,39,17.80
2015,06,17,08,40,17.80
2015,06,17,08,41,17.80
2015,06,17,08,42,17.80
2015,06,17,08,43,17.80
2015,06,17,08,44,17.70
2015,06,17,08,45,17.50
2015,06,17,08,46,17.40
2015,06,17,08,47,17.30
2015,06,17,08,48,17.40
2015,06,17,08,49,17.40
2015,06,17,08,50,17.50
2015,06,17,08,51,17.50
2015,06,17,08,52,17.60
2015,06,17,08,53,17.50
2015,06,17,08,54,17.40
2015,06,17,08,55,17.40
2015,06,17,08,56,17.40
2015,06,17,08,57,17.40
2015,06,17,08,58,17.50
2015,06,17,08,59,17.50
2015,06,17,09,00,17.60
2015,06,17,09,01,17.60
2015,06,17,09,02,17.60
2015,06,17,09,03,17.70
2015,06,17,09,04,17.80
2015,06,17,09,05,17.80
2015,06,17,09,06,17.80
2015,06,17,09,07,18.00
2015,06,17,09,08,18.10
2015,06,17,09,09,18.10
2015,06,17,09,10,18.10
2015,06,17,09,11,18.10
2015,06,17,09,12,18.10
2015,06,17,09,13,18.10
2015,06,17,09,14,18.00
2015,06,17,09,15,17.90
2015,06,17,09,16,17.90
2015,06,17,09,17,17.80
2015,06,17,09,18,17.80
2015,06,17,09,19,17.80
2015,06,17,09,20,17.90
2015,06,17,09,21,17.90
2015,06,17,09,22,17.90
2015,06,17,09,23,17.90
2015,06,17,09,24,17.90
2015,06,17,09,25,17.90
2015,06,17,09,26,17.90
2015,06,17,09,27,17.90
2015,06,17,09,28,18.00
2015,06,17,09,29,18.00
2015,06,17,09,30,18.00
2015,06,17,09,31,18.10
2015,06,17,09,32,18.20
2015,06,17,09,33,18.20
2015,06,17,09,34,18.40
2015,06,17,09,35,18.50
2015,06,17,09,36,18.50
2015,06,17,09,37,18.60
2015,06,17,09,38,18.70
2015,06,17,09,39,18.70
2015,06,17,09,40,18.80
2015,06,17,09,41,18.90
2015,06,17,09,42,18.90
2015,06,17,09,43,19.00
2015,06,17,09,44,19.20
2015,06,17,09,45,19.20
2015,06,17,09,46,19.20
2015,06,17,09,47,19.10
2015,06,17,09,48,19.10
2015,06,17,09,49,19.10
2015,06,17,09,50,19.20
2015,06,17,09,51,19.30
2015,06,17,09,52,19.40
2015,06,17,09,53,19.40
2015,06,17,09,54,19.30
2015,06,17,09,55,19.20
2015,06,17,09,56,19.00
2015,06,17,09,57,18.90
2015,06,17,09,58,19.00
2015,06,17,09,59,19.00
2015,06,17,10,00,19.00
2015,06,17,10,01,18.90
2015,06,17,10,02,18.90
2015,06,17,10,03,19.00
2015,06,17,10,04,19.10
2015,06,17,10,05,19.10
2015,06,17,10,06,19.10
2015,06,17,10,07,19.30
2015,06,17,10,08,19.40
2015,06,17,10,09,19.40
2015,06,17,10,10,19.40
2015,06,17,10,11,19.40
2015,06,17,10,12,19.30
2015,06,17,10,13,19.30
2015,06,17,10,14,19.30
2015,06,17,10,15,19.20
2015,06,17,10,16,19.20
2015,06,17,10,17,19.30
2015,06,17,10,18,19.30
2015,06,17,10,19,19.30
2015,06,17,10,20,19.40
2015,06,17,10,21,19.50
2015,06,17,10,22,19.60
2015,06,17,10,23,19.70
2015,06,17,10,24,19.70
2015,06,17,10,25,19.70
2015,06,17,10,26,19.70
2015,06,17,10,27,19.70
2015,06,17,10,28,19.70
2015,06,17,10,29,19.70
2015,06,17,10,30,19.80
2015,06,17,10,31,19.70
2015,06,17,10,32,19.70
2015,06,17,10,33,19.70
2015,06,17,10,34,19.70
2015,06,17,10,35,19.80
2015,06,17,10,36,19.90
2015,06,17,10,37,19.90
2015,06,17,10,38,19.80
2015,06,17,10,39,19.80
2015,06,17,10,40,19.80
2015,06,17,10,41,19.80
2015,06,17,10,42,19.80
2015,06,17,10,43,19.90
2015,06,17,10,44,20.00
2015,06,17,10,45,20.00
2015,06,17,10,46,20.10
2015,06,17,10,47,20.10
2015,06,17,10,48,19.90
2015,06,17,10,49,19.80
2015,06,17,10,50,19.70
2015,06,17,10,51,19.50
2015,06,17,10,52,19.30
2015,06,17,10,53,19.30
2015,06,17,10,54,19.30
2015,06,17,10,55,19.30
2015,06,17,10,56,19.40
2015,06,17,10,57,19.40
2015,06,17,10,58,19.50
2015,06,17,10,59,19.60
2015,06,17,11,00,19.70
2015,06,17,11,01,19.70
2015,06,17,11,02,19.80
2015,06,17,11,03,19.80
2015,06,17,11,04,19.80
2015,06,17,11,05,19.80
2015,06,17,11,06,19.90
2015,06,17,11,07,20.00
2015,06,17,11,08,20.00
2015,06,17,11,09,20.20
2015,06,17,11,10,20.30
2015,06,17,11,11,20.30
2015,06,17,11,12,20.30
2015,06,17,11,13,20.40
2015,06,17,11,14,20.30
2015,06,17,11,15,20.30
2015,06,17,11,16,20.20
2015,06,17,11,17,20.20
2015,06,17,11,18,20.10
2015,06,17,11,19,20.10
2015,06,17,11,20,19.90
2015,06,17,11,21,19.90
2015,06,17,11,22,19.90
2015,06,17,11,23,19.90
2015,06,17,11,24,19.80
2015,06,17,11,25,19.70
2015,06,17,11,26,19.50
2015,06,17,11,27,19.50
2015,06,17,11,28,19.40
2015,06,17,11,29,19.30
2015,06,17,11,30,19.40
2015,06,17,11,31,19.40
2015,06,17,11,32,19.40
2015,06,17,11,33,19.50
2015,06,17,11,34,19.60
2015,06,17,11,35,19.60
2015,06,17,11,36,19.60
2015,06,17,11,37,19.70
2015,06,17,11,38,19.70
2015,06,17,11,39,19.80
2015,06,17,11,40,19.80
2015,06,17,11,41,19.80
2015,06,17,11,42,19.90
2015,06,17,11,43,20.00
2015,06,17,11,44,20.10
2015,06,17,11,45,20.10
2015,06,17,11,46,20.10
2015,06,17,11,47,20.20
2015,06,17,11,48,20.20
2015,06,17,11,49,20.10
2015,06,17,11,50,20.10
2015,06,17,11,51,20.10
2015,06,17,11,52,19.90
2015,06,17,11,53,19.80
2015,06,17,11,54,19.70
2015,06,17,11,55,19.70
2015,06,17,11,56,19.60
2015,06,17,11,57,19.70
2015,06,17,11,58,19.80
2015,06,17,11,59,19.70
2015,06,17,12,00,19.80
2015,06,17,12,01,19.80
2015,06,17,12,02,19.80
2015,06,17,12,03,19.80
2015,06,17,12,04,19.80
2015,06,17,12,05,19.80
2015,06,17,12,06,19.70
2015,06,17,12,07,19.70
2015,06,17,12,08,19.80
2015,06,17,12,09,19.90
2015,06,17,12,10,19.90
2015,06,17,12,11,20.00
2015,06,17,12,12,20.00
2015,06,17,12,13,19.90
2015,06,17,12,14,19.90
2015,06,17,12,15,19.90
2015,06,17,12,16,20.00
2015,06,17,12,17,19.90
2015,06,17,12,18,19.80
2015,06,17,12,19,19.70
2015,06,17,12,20,19.60
2015,06,17,12,21,19.60
2015,06,17,12,22,19.60
2015,06,17,12,23,19.60
2015,06,17,12,24,19.60
2015,06,17,12,25,19.70
2015,06,17,12,26,19.60
2015,06,17,12,27,19.50
2015,06,17,12,28,19.40
2015,06,17,12,29,19.30
2015,06,17,12,30,19.30
2015,06,17,12,31,19.30
2015,06,17,12,32,19.40
2015,06,17,12,33,19.30
2015,06,17,12,34,19.40
2015,06,17,12,35,19.40
2015,06,17,12,36,19.50
2015,06,17,12,37,19.50
2015,06,17,12,38,19.50
2015,06,17,12,39,19.40
2015,06,17,12,40,19.30
2015,06,17,12,41,19.40
2015,06,17,12,42,19.40
2015,06,17,12,43,19.40
2015,06,17,12,44,19.30
2015,06,17,12,45,19.20
2015,06,17,12,46,19.10
2015,06,17,12,47,19.10
2015,06,17,12,48,19.10
2015,06,17,12,49,19.10
2015,06,17,12,50,19.20
2015,06,17,12,51,19.20
2015,06,17,12,52,19.10
2015,06,17,12,53,19.00
2015,06,17,12,54,18.90
2015,06,17,12,55,18.70
2015,06,17,12,56,18.70
2015,06,17,12,57,18.70
2015,06,17,12,58,18.80
2015,06,17,12,59,18.80
2015,06,17,13,00,18.80
2015,06,17,13,01,18.80
2015,06,17,13,02,18.80
2015,06,17,13,03,18.90
2015,06,17,13,04,18.90
2015,06,17,13,05,18.90
2015,06,17,13,06,18.90
2015,06,17,13,07,18.90
2015,06,17,13,08,19.00
2015,06,17,13,09,19.00
2015,06,17,13,10,19.10
2015,06,17,13,11,19.00
2015,06,17,13,12,19.00
2015,06,17,13,13,19.10
2015,06,17,13,14,19.10
2015,06,17,13,15,19.10
2015,06,17,13,16,19.10
2015,06,17,13,17,19.10
2015,06,17,13,18,19.00
2015,06,17,13,19,19.00
2015,06,17,13,20,19.00
2015,06,17,13,21,19.00
2015,06,17,13,22,19.00
2015,06,17,13,23,19.20
2015,06,17,13,24,19.30
2015,06,17,13,25,19.40
2015,06,17,13,26,19.50
2015,06,17,13,27,19.50
2015,06,17,13,28,19.60
2015,06,17,13,29,19.70
2015,06,17,13,30,19.60
2015,06,17,13,31,19.60
2015,06,17,13,32,19.60
2015,06,17,13,33,19.60
2015,06,17,13,34,19.50
2015,06,17,13,35,19.60
2015,06,17,13,36,19.60
2015,06,17,13,37,19.70
2015,06,17,13,38,19.80
2015,06,17,13,39,19.90
2015,06,17,13,40,19.90
2015,06,17,13,41,19.80
2015,06,17,13,42,19.70
2015,06,17,13,43,19.60
2015,06,17,13,44,19.60
2015,06,17,13,45,19.60
2015,06,17,13,46,19.50
2015,06,17,13,47,19.60
2015,06,17,13,48,19.60
2015,06,17,13,49,19.60
2015,06,17,13,50,19.60
2015,06,17,13,51,19.60
2015,06,17,13,52,19.70
2015,06,17,13,53,19.80
2015,06,17,13,54,19.90
2015,06,17,13,55,19.90
2015,06,17,13,56,19.60
2015,06,17,13,57,19.40
2015,06,17,13,58,19.20
2015,06,17,13,59,19.10
2015,06,17,14,00,19.10
2015,06,17,14,01,19.20
2015,06,17,14,02,19.20
2015,06,17,14,03,19.30
2015,06,17,14,04,19.50
2015,06,17,14,05,19.70
2015,06,17,14,06,19.90
2015,06,17,14,07,20.10
2015,06,17,14,08,20.20
2015,06,17,14,09,20.30
2015,06,17,14,10,20.40
2015,06,17,14,11,20.40
2015,06,17,14,12,20.50
2015,06,17,14,13,20.50
2015,06,17,14,14,20.50
2015,06,17,14,15,20.40
2015,06,17,14,16,20.40
2015,06,17,14,17,20.40
2015,06,17,14,18,20.30
2015,06,17,14,19,20.20
2015,06,17,14,20,20.20
2015,06,17,14,21,20.20
2015,06,17,14,22,20.20
2015,06,17,14,23,20.20
2015,06,17,14,24,20.30
2015,06,17,14,25,20.40
2015,06,17,14,26,20.40
2015,06,17,14,27,20.30
2015,06,17,14,28,20.30
2015,06,17,14,29,20.30
2015,06,17,14,30,20.30
2015,06,17,14,31,20.30
2015,06,17,14,32,20.40
2015,06,17,14,33,20.40
2015,06,17,14,34,20.40
2015,06,17,14,35,20.40
2015,06,17,14,36,20.50
2015,06,17,14,37,20.60
2015,06,17,14,38,20.80
2015,06,17,14,39,20.90
2015,06,17,14,40,21.10
2015,06,17,14,41,21.20
2015,06,17,14,42,21.20
2015,06,17,14,43,21.20
2015,06,17,14,44,21.30
2015,06,17,14,45,21.40
2015,06,17,14,46,21.40
2015,06,17,14,47,21.50
2015,06,17,14,48,21.60
2015,06,17,14,49,21.70
2015,06,17,14,50,21.80
2015,06,17,14,51,21.80
2015,06,17,14,52,21.80
2015,06,17,14,53,21.80
2015,06,17,14,54,21.90
2015,06,17,14,55,21.80
2015,06,17,14,56,21.60
2015,06,17,14,57,21.60
2015,06,17,14,58,21.60
2015,06,17,14,59,21.60
2015,06,17,15,00,21.70
2015,06,17,15,01,21.70
2015,06,17,15,02,21.80
2015,06,17,15,03,21.70
2015,06,17,15,04,21.60
2015,06,17,15,05,21.40
2015,06,17,15,06,21.30
2015,06,17,15,07,21.20
2015,06,17,15,08,21.10
2015,06,17,15,09,21.10
2015,06,17,15,10,21.00
2015,06,17,15,11,20.80
2015,06,17,15,12,20.50
2015,06,17,15,13,20.30
2015,06,17,15,14,20.10
2015,06,17,15,15,19.90
2015,06,17,15,16,19.80
2015,06,17,15,17,19.70
2015,06,17,15,18,19.70
2015,06,17,15,19,19.70
2015,06,17,15,20,19.80
2015,06,17,15,21,19.90
2015,06,17,15,22,19.90
2015,06,17,15,23,19.90
2015,06,17,15,24,19.90
2015,06,17,15,25,19.90
2015,06,17,15,26,20.00
2015,06,17,15,27,20.10
2015,06,17,15,28,20.20
2015,06,17,15,29,20.30
2015,06,17,15,30,20.30
2015,06,17,15,31,20.30
2015,06,17,15,32,20.30
2015,06,17,15,33,20.40
2015,06,17,15,34,20.50
2015,06,17,15,35,20.60
2015,06,17,15,36,20.70
2015,06,17,15,37,20.80
2015,06,17,15,38,20.90
2015,06,17,15,39,20.90
2015,06,17,15,40,20.80
2015,06,17,15,41,20.50
2015,06,17,15,42,20.30
2015,06,17,15,43,20.20
2015,06,17,15,44,20.00
2015,06,17,15,45,19.90
2015,06,17,15,46,19.90
2015,06,17,15,47,19.90
2015,06,17,15,48,20.00
2015,06,17,15,49,20.00
2015,06,17,15,50,20.10
2015,06,17,15,51,20.10
2015,06,17,15,52,20.10
2015,06,17,15,53,20.00
2015,06,17,15,54,20.00
2015,06,17,15,55,19.90
2015,06,17,15,56,19.90
2015,06,17,15,57,19.90
2015,06,17,15,58,19.80
2015,06,17,15,59,19.90
2015,06,17,16,00,20.00
2015,06,17,16,01,20.20
2015,06,17,16,02,20.40
2015,06,17,16,03,20.50
2015,06,17,16,04,20.70
2015,06,17,16,05,20.80
2015,06,17,16,06,20.80
2015,06,17,16,07,20.80
2015,06,17,16,08,20.80
2015,06,17,16,09,20.80
2015,06,17,16,10,20.70
2015,06,17,16,11,20.60
2015,06,17,16,12,20.60
2015,06,17,16,13,20.60
2015,06,17,16,14,20.60
2015,06,17,16,15,20.70
2015,06,17,16,16,20.80
2015,06,17,16,17,21.00
2015,06,17,16,18,21.10
2015,06,17,16,19,21.20
2015,06,17,16,20,21.30
2015,06,17,16,21,21.30
2015,06,17,16,22,21.30
2015,06,17,16,23,21.20
2015,06,17,16,24,21.10
2015,06,17,16,25,21.10
2015,06,17,16,26,21.10
2015,06,17,16,27,21.00
2015,06,17,16,28,21.00
2015,06,17,16,29,20.90
2015,06,17,16,30,20.80
2015,06,17,16,31,20.80
2015,06,17,16,32,20.70
2015,06,17,16,33,20.80
2015,06,17,16,34,20.80
2015,06,17,16,35,20.80
2015,06,17,16,36,20.80
2015,06,17,16,37,20.80
2015,06,17,16,38,20.80
2015,06,17,16,39,20.70
2015,06,17,16,40,20.50
2015,06,17,16,41,20.30
2015,06,17,16,42,20.30
2015,06,17,16,43,20.30
2015,06,17,16,44,20.30
2015,06,17,16,45,20.40
2015,06,17,16,46,20.60
2015,06,17,16,47,20.70
2015,06,17,16,48,20.70
2015,06,17,16,49,20.80
2015,06,17,16,50,20.90
2015,06,17,16,51,20.90
2015,06,17,16,52,20.90
2015,06,17,16,53,20.90
2015,06,17,16,54,20.80
2015,06,17,16,55,20.80
2015,06,17,16,56,20.60
2015,06,17,16,57,20.50
2015,06,17,16,58,20.40
2015,06,17,16,59,20.30
2015,06,17,17,00,20.20
2015,06,17,17,01,20.10
2015,06,17,17,02,20.00
2015,06,17,17,03,20.00
2015,06,17,17,04,20.00
2015,06,17,17,05,20.10
2015,06,17,17,06,20.10
2015,06,17,17,07,20.10
2015,06,17,17,08,20.20
2015,06,17,17,09,20.20
2015,06,17,17,10,20.30
2015,06,17,17,11,20.30
2015,06,17,17,12,20.30
2015,06,17,17,13,20.30
2015,06,17,17,14,20.30
2015,06,17,17,15,20.40
2015,06,17,17,16,20.40
2015,06,17,17,17,20.50
2015,06,17,17,18,20.60
2015,06,17,17,19,20.60